This is the latest recevied weather packets stored in our database for station/object K7SKM. If no packets are shown the sender has not sent any weather packets the latest 10 day(s).
| Time | Temp. | Humidity | Pressure | Rain* | Wind** | Luminosity | Snow |
|---|---|---|---|---|---|---|---|
| 1778081568 | 12.78° C | 80% | 1024.3 hPa | 0 mm | - | 43 W/m² | - |
| 1778081265 | 12.22° C | 80% | 1024.4 hPa | 0 mm | - | 49 W/m² | - |
| 1778080963 | 12.22° C | 80% | 1024.4 hPa | 0 mm | - | 43 W/m² | - |
| 1778080662 | 12.22° C | 80% | 1024.4 hPa | 0 mm | - | 26 W/m² | - |
| 1778080358 | 12.22° C | 80% | 1024.5 hPa | 0 mm | - | 29 W/m² | - |
| 1778080054 | 12.22° C | 79% | 1024.6 hPa | 0 mm | - | 24 W/m² | - |
| 1778079752 | 12.22° C | 79% | 1024.4 hPa | 0 mm | - | 23 W/m² | - |
| 1778079448 | 12.22° C | 79% | 1024.5 hPa | 0 mm | - | 19 W/m² | - |
| 1778079145 | 12.22° C | 79% | 1024.5 hPa | 0 mm | - | 16 W/m² | - |
| 1778078842 | 12.22° C | 79% | 1024.6 hPa | 0 mm | - | 16 W/m² | - |
| 1778078539 | 12.22° C | 80% | 1024.2 hPa | 0 mm | - | 17 W/m² | - |
| 1778078236 | 12.22° C | 79% | 1024.3 hPa | 0 mm | - | 17 W/m² | - |
| 1778077934 | 12.22° C | 80% | 1024 hPa | 0 mm | - | 19 W/m² | - |
| 1778077633 | 12.22° C | 79% | 1024 hPa | 0 mm | - | 19 W/m² | - |
| 1778077330 | 12.78° C | 79% | 1024.3 hPa | 0 mm | - | 12 W/m² | - |
| 1778077028 | 12.22° C | 79% | 1024.2 hPa | 0 mm | - | 10 W/m² | - |
| 1778076726 | 12.78° C | 79% | 1024.3 hPa | 0 mm | - | 11 W/m² | - |
| 1778076423 | 12.78° C | 78% | 1024.5 hPa | 0 mm | - | 7 W/m² | - |
| 1778076120 | 12.22° C | 78% | 1024.3 hPa | 0 mm | - | 9 W/m² | - |
| 1778075817 | 12.22° C | 79% | 1024.1 hPa | 0 mm | - | 11 W/m² | - |
| 1778075513 | 12.22° C | 79% | 1024.3 hPa | 0 mm | - | 9 W/m² | - |
| 1778075210 | 12.22° C | 79% | 1024.2 hPa | 0 mm | - | 7 W/m² | - |
| 1778074906 | 12.22° C | 79% | 1024 hPa | 0 mm | - | 5 W/m² | - |
| 1778074603 | 12.22° C | 80% | 1024.2 hPa | 0 mm | - | 3 W/m² | - |
| 1778074300 | 12.22° C | 80% | 1024.2 hPa | 0 mm | - | 2 W/m² | - |
* Rain latest hour (hover to see other rain measurements)
** Current wind speed in m/s (hover to see current wind gust speed)